Regional Weather Roundup
Issued by NWS

Home | Current Version | Previous Version | Graphics & Text | Print | Product List | Glossary On
Versions: 1 2 3 4 5 6 7 8 9 10 11 12 13 14 15 16 17 18 19 20 21 22 23 24 25 26 27 28
000
ASUS45 KBOU 180307
RWRCO

WEATHER ROUNDUP FOR COLORADO
NATIONAL WEATHER SERVICE DENVER/BOULDER CO
900 PM MDT TUE OCT 17 2017

NOTE: "FAIR" INDICATES FEW OR NO CLOUDS BELOW 12000 FEET WITH NO
SIGNIFICANT WEATHER AND/OR OBSTRUCTIONS TO VISIBILITY.

COZ001>005-013-030-031-180400-
...NORTHWEST COLORADO...

CITY           SKY/WX    TMP DP  RH WIND       PRES   REMARKS
CRAIG          FAIR      39  18  42 CALM      30.22R
HAYDEN         FAIR      48  13  24 CALM      30.25S
MEEKER         FAIR      41  19  41 NE6       30.24R
RABBIT EARS PA FAIR      41   9  26 W7        30.43F
STEAMBOAT SPGS FAIR      46  14  27 CALM      30.26R
WALDEN         FAIR      34  10  37 SE9       30.31F WCI  26
$$

COZ006>008-011-180400-
...WEST CENTRAL VALLEYS...

CITY           SKY/WX    TMP DP  RH WIND       PRES   REMARKS
GRAND JUNCTION FAIR      46  13  26 E3        30.18F
MONTROSE       FAIR      47  19  33 SE7       30.26S
EAGLE          FAIR      45  16  31 E8        30.28R
RIFLE          FAIR      49  16  26 SE5       30.22R
DELTA          FAIR      51  17  26 N7        30.22R
NUCLA          FAIR      52   1  12 E13       30.28S
$$

COZ017>023-064>068-180400-
...SOUTHWEST COLORADO...

CITY           SKY/WX    TMP DP  RH WIND       PRES   REMARKS
DURANGO        FAIR      48  11  22 N8        30.28R
CORTEZ         FAIR      42   9  25 NE8       30.25S
PAGOSA SPRINGS FAIR      45  14  28 NE3       30.35S
TELLURIDE      NOT AVBL
WOLF CREEK PAS FAIR      37  10  32 SW12      30.60S
$$

COZ009-010-012-014-032>034-037-058>063-180400-
...CENTRAL COLORADO...

CITY           SKY/WX    TMP DP  RH WIND       PRES   REMARKS
ASPEN          FAIR      42  15  33 S8        30.33R
BUENA VISTA    FAIR      49   9  19 SE3       30.31R
COPPER MTN     FAIR      43   0  16 W15G22    30.53S
BERTHOUD PASS  FAIR      34  27  75 NW22      30.53S WCI  22
COTTONWOOD PAS FAIR      55  -4   8 SW12      30.41S
GUNNISON       FAIR      42  13  30 NE3       30.33R
KREMMLING      FAIR      41  18  38 E3        30.29S
LEADVILLE      FAIR      34   5  29 NE7       30.41S WCI  28
SALIDA         NOT AVBL
SUNLIGHT       FAIR      37   1  22 SW10      30.50F
WILKERSON PASS FAIR      45  -2  14 NW5       30.51S
$$

COZ069>075-180400-
...SAN LUIS VALLEY/SANGRE DE CRISTO MOUNTAINS...

CITY           SKY/WX    TMP DP  RH WIND       PRES   REMARKS
ALAMOSA        FAIR      42  13  30 E5        30.29S
DEL NORTE      FAIR      43  16  33 W13       30.33S
LA VETA PASS   FAIR      45   3  18 SW18      30.54S
SAGUACHE       FAIR      43   7  22 N7        30.33R
$$

COZ035-036-038>040-180400-
...NORTHERN COLORADO FRONT RANGE...

CITY           SKY/WX    TMP DP  RH WIND       PRES   REMARKS
DENVER INTL AP FAIR      58  15  18 S14       30.10S
DMNS CITY PARK   N/A     56  21  25 E7        30.11S
AURORA         PTCLDY    52  19  27 S13       30.12F
FRONT RANGE AP MOCLDY    50  25  37 SE8       30.12S
ERIE MUNI ARPT FAIR      49  24  38 S3        30.13F
BOULDER MUN AP FAIR      61  18  18 S6        30.09F
CENTENNIAL     FAIR      54  18  24 S7        30.14S
BROOMFIELD     NOT AVBL
FORT COLLINS   FAIR      55  30  38 E5        30.08F
LONGMONT       FAIR      50  29  44 CALM      30.10S
$$

COZ041-046-047-076>085-087-088-180400-
...PIKES PEAK/PALMER DIVIDE AND SOUTHERN FOOTHILLS...

CITY           SKY/WX    TMP DP  RH WIND       PRES   REMARKS
COLO. SPRINGS  FAIR      47  21  35 N3        30.19S
A. F. ACADEMY  FAIR      42  19  40 N10       30.20S
SCHRIEVER AFB  FAIR      48  21  34 CALM      30.19S
CHEYENNE MTN   FAIR      58   9  14 W7        30.17S
ELLICOTT       FAIR     N/A N/A N/A SE10      30.17S
FALCON         FAIR      48  14  25 W5        30.23S
FORT CARSON    FAIR      57  10  15 SW6       30.16S
LIMON          FAIR      34  28  79 N5        30.13F WCI  30
MONUMENT HILL  FAIR      43  18  36 S8        30.23S
CANON CITY     CLEAR     57  19  23 NW6       30.14S
WALSENBURG     FAIR      55  14  19 SW12      30.16S
TRINIDAD       FAIR      50  28  42 W9        30.15F
$$

COZ042>045-048>051-090-091-180400-
...NORTHEAST COLORADO...

CITY           SKY/WX    TMP DP  RH WIND       PRES   REMARKS
GREELEY ARPT   FAIR      47  31  53 CALM      30.07S
AKRON          FAIR      58  19  22 SW13      30.05F
BURLINGTON     FAIR      52  28  39 S12       30.07S
WRAY           FAIR      59  27  29 S9        30.01F
YUMA           FAIR      46  28  49 SW9       30.02F
STERLING       FAIR      50  25  37 SW5       30.00S
HOLYOKE        FAIR      55  28  35 S9        30.00S
FORT MORGAN    FAIR      61   8  12 W3        30.05S
$$

COZ086-089-092>099-180400-
...SOUTHEAST COLORADO...

CITY           SKY/WX    TMP DP  RH WIND       PRES   REMARKS
PUEBLO         FAIR      51  23  33 CALM      30.10R
LA JUNTA       FAIR      59  28  30 E3        30.07S
LAMAR          FAIR      44  29  55 SW7       30.04R
SPRINGFIELD      N/A     42  35  76 SW6       30.09S
$$




USA.gov is the U.S. government's official web portal to all federal, state and local government web resources and services.